Year,Month,Day,Hour,Minute,Value (Times are PST for windspeed in km/hr)
2017,01,11,00,00,22.40
2017,01,11,00,01,20.10
2017,01,11,00,02,24.80
2017,01,11,00,03,23.90
2017,01,11,00,04,20.30
2017,01,11,00,05,19.90
2017,01,11,00,06,26.90
2017,01,11,00,07,25.00
2017,01,11,00,08,24.40
2017,01,11,00,09,23.50
2017,01,11,00,10,29.30
2017,01,11,00,11,21.70
2017,01,11,00,12,23.00
2017,01,11,00,13,20.50
2017,01,11,00,14,17.10
2017,01,11,00,15,24.20
2017,01,11,00,16,24.10
2017,01,11,00,17,19.60
2017,01,11,00,18,18.50
2017,01,11,00,19,24.50
2017,01,11,00,20,22.60
2017,01,11,00,21,17.70
2017,01,11,00,22,22.80
2017,01,11,00,23,14.50
2017,01,11,00,24,15.60
2017,01,11,00,25,21.60
2017,01,11,00,26,16.50
2017,01,11,00,27,17.20
2017,01,11,00,28,26.40
2017,01,11,00,29,23.20
2017,01,11,00,30,27.50
2017,01,11,00,31,18.40
2017,01,11,00,32,25.90
2017,01,11,00,33,18.40
2017,01,11,00,34,13.90
2017,01,11,00,35,17.10
2017,01,11,00,36,10.70
2017,01,11,00,37,16.00
2017,01,11,00,38,16.90
2017,01,11,00,39,21.50
2017,01,11,00,40,25.50
2017,01,11,00,41,21.50
2017,01,11,00,42,28.20
2017,01,11,00,43,27.00
2017,01,11,00,44,19.10
2017,01,11,00,45,16.70
2017,01,11,00,46,19.00
2017,01,11,00,47,20.80
2017,01,11,00,48,29.30
2017,01,11,00,49,19.80
2017,01,11,00,50,23.50
2017,01,11,00,51,26.50
2017,01,11,00,52,26.00
2017,01,11,00,53,21.00
2017,01,11,00,54,22.50
2017,01,11,00,55,22.70
2017,01,11,00,56,23.30
2017,01,11,00,57,16.50
2017,01,11,00,58,23.20
2017,01,11,00,59,20.20
2017,01,11,01,00,20.20
2017,01,11,01,01,28.40
2017,01,11,01,02,21.70
2017,01,11,01,03,25.90
2017,01,11,01,04,25.30
2017,01,11,01,05,17.50
2017,01,11,01,06,10.40
2017,01,11,01,07,24.40
2017,01,11,01,08,18.00
2017,01,11,01,09,17.10
2017,01,11,01,10,24.40
2017,01,11,01,11,24.50
2017,01,11,01,12,25.30
2017,01,11,01,13,26.20
2017,01,11,01,14,12.10
2017,01,11,01,15,17.40
2017,01,11,01,16,19.80
2017,01,11,01,17,17.40
2017,01,11,01,18,18.80
2017,01,11,01,19,19.90
2017,01,11,01,20,25.00
2017,01,11,01,21,33.00
2017,01,11,01,22,26.90
2017,01,11,01,23,26.60
2017,01,11,01,24,19.40
2017,01,11,01,25,23.50
2017,01,11,01,26,21.90
2017,01,11,01,27,22.30
2017,01,11,01,28,18.70
2017,01,11,01,29,17.90
2017,01,11,01,30,19.50
2017,01,11,01,31,25.80
2017,01,11,01,32,20.10
2017,01,11,01,33,25.80
2017,01,11,01,34,14.20
2017,01,11,01,35,20.10
2017,01,11,01,36,17.00
2017,01,11,01,37,18.20
2017,01,11,01,38,25.00
2017,01,11,01,39,29.30
2017,01,11,01,40,34.80
2017,01,11,01,41,26.80
2017,01,11,01,42,28.40
2017,01,11,01,43,19.20
2017,01,11,01,44,18.40
2017,01,11,01,45,14.40
2017,01,11,01,46,21.20
2017,01,11,01,47,26.00
2017,01,11,01,48,21.60
2017,01,11,01,49,24.00
2017,01,11,01,50,15.20
2017,01,11,01,51,17.20
2017,01,11,01,52,19.70
2017,01,11,01,53,17.00
2017,01,11,01,54,17.60
2017,01,11,01,55,15.60
2017,01,11,01,56,24.30
2017,01,11,01,57,19.20
2017,01,11,01,58,18.80
2017,01,11,01,59,26.20
2017,01,11,02,00,20.00
2017,01,11,02,01,24.80
2017,01,11,02,02,29.10
2017,01,11,02,03,26.50
2017,01,11,02,04,21.00
2017,01,11,02,05,19.20
2017,01,11,02,06,25.00
2017,01,11,02,07,16.10
2017,01,11,02,08,14.90
2017,01,11,02,09,24.10
2017,01,11,02,10,17.20
2017,01,11,02,11,18.30
2017,01,11,02,12,17.00
2017,01,11,02,13,23.80
2017,01,11,02,14,16.70
2017,01,11,02,15,17.50
2017,01,11,02,16,21.80
2017,01,11,02,17,22.40
2017,01,11,02,18,23.80
2017,01,11,02,19,28.20
2017,01,11,02,20,20.10
2017,01,11,02,21,18.30
2017,01,11,02,22,22.10
2017,01,11,02,23,23.00
2017,01,11,02,24,15.80
2017,01,11,02,25,25.70
2017,01,11,02,26,16.10
2017,01,11,02,27,20.80
2017,01,11,02,28,21.40
2017,01,11,02,29,24.80
2017,01,11,02,30,22.90
2017,01,11,02,31,26.40
2017,01,11,02,32,22.20
2017,01,11,02,33,19.50
2017,01,11,02,34,21.60
2017,01,11,02,35,18.80
2017,01,11,02,36,15.40
2017,01,11,02,37,16.40
2017,01,11,02,38,15.20
2017,01,11,02,39,20.80
2017,01,11,02,40,16.80
2017,01,11,02,41,17.10
2017,01,11,02,42,16.50
2017,01,11,02,43,25.50
2017,01,11,02,44,22.10
2017,01,11,02,45,25.30
2017,01,11,02,46,19.10
2017,01,11,02,47,15.70
2017,01,11,02,48,24.60
2017,01,11,02,49,19.30
2017,01,11,02,50,21.70
2017,01,11,02,51,19.10
2017,01,11,02,52,22.20
2017,01,11,02,53,19.60
2017,01,11,02,54,16.40
2017,01,11,02,55,28.40
2017,01,11,02,56,27.90
2017,01,11,02,57,25.00
2017,01,11,02,58,23.70
2017,01,11,02,59,17.20
2017,01,11,03,00,27.30
2017,01,11,03,01,22.40
2017,01,11,03,02,20.90
2017,01,11,03,03,11.20
2017,01,11,03,04,11.70
2017,01,11,03,05,10.20
2017,01,11,03,06,25.40
2017,01,11,03,07,21.50
2017,01,11,03,08,19.80
2017,01,11,03,09,21.60
2017,01,11,03,10,21.50
2017,01,11,03,11,22.60
2017,01,11,03,12,17.00
2017,01,11,03,13,12.70
2017,01,11,03,14,12.20
2017,01,11,03,15,21.00
2017,01,11,03,16,17.20
2017,01,11,03,17,15.60
2017,01,11,03,18,13.40
2017,01,11,03,19,12.60
2017,01,11,03,20,20.40
2017,01,11,03,21,23.00
2017,01,11,03,22,22.50
2017,01,11,03,23,12.60
2017,01,11,03,24,8.80
2017,01,11,03,25,10.90
2017,01,11,03,26,18.60
2017,01,11,03,27,24.80
2017,01,11,03,28,19.50
2017,01,11,03,29,15.00
2017,01,11,03,30,16.20
2017,01,11,03,31,19.80
2017,01,11,03,32,19.90
2017,01,11,03,33,19.10
2017,01,11,03,34,17.20
2017,01,11,03,35,18.70
2017,01,11,03,36,18.20
2017,01,11,03,37,16.00
2017,01,11,03,38,21.80
2017,01,11,03,39,20.70
2017,01,11,03,40,17.10
2017,01,11,03,41,21.00
2017,01,11,03,42,18.80
2017,01,11,03,43,19.20
2017,01,11,03,44,22.10
2017,01,11,03,45,24.30
2017,01,11,03,46,24.10
2017,01,11,03,47,18.20
2017,01,11,03,48,20.00
2017,01,11,03,49,19.50
2017,01,11,03,50,16.90
2017,01,11,03,51,7.10
2017,01,11,03,52,9.40
2017,01,11,03,53,13.80
2017,01,11,03,54,12.20
2017,01,11,03,55,19.40
2017,01,11,03,56,18.20
2017,01,11,03,57,20.80
2017,01,11,03,58,12.70
2017,01,11,03,59,12.20
2017,01,11,04,00,9.00
2017,01,11,04,01,15.50
2017,01,11,04,02,22.50
2017,01,11,04,03,14.20
2017,01,11,04,04,14.50
2017,01,11,04,05,14.50
2017,01,11,04,06,14.50
2017,01,11,04,07,14.50
2017,01,11,04,08,11.70
2017,01,11,04,09,8.40
2017,01,11,04,10,8.00
2017,01,11,04,11,12.60
2017,01,11,04,12,15.60
2017,01,11,04,13,20.30
2017,01,11,04,14,15.80
2017,01,11,04,15,9.70
2017,01,11,04,16,9.40
2017,01,11,04,17,10.90
2017,01,11,04,18,11.10
2017,01,11,04,19,19.20
2017,01,11,04,20,9.90
2017,01,11,04,21,22.60
2017,01,11,04,22,18.80
2017,01,11,04,23,16.60
2017,01,11,04,24,17.50
2017,01,11,04,25,17.40
2017,01,11,04,26,16.90
2017,01,11,04,27,10.30
2017,01,11,04,28,14.20
2017,01,11,04,29,11.60
2017,01,11,04,30,13.30
2017,01,11,04,31,13.00
2017,01,11,04,32,11.80
2017,01,11,04,33,12.80
2017,01,11,04,34,15.30
2017,01,11,04,35,14.60
2017,01,11,04,36,13.60
2017,01,11,04,37,20.20
2017,01,11,04,38,17.50
2017,01,11,04,39,17.90
2017,01,11,04,40,18.10
2017,01,11,04,41,16.50
2017,01,11,04,42,20.80
2017,01,11,04,43,21.10
2017,01,11,04,44,13.60
2017,01,11,04,45,21.90
2017,01,11,04,46,19.00
2017,01,11,04,47,14.70
2017,01,11,04,48,19.20
2017,01,11,04,49,12.00
2017,01,11,04,50,17.50
2017,01,11,04,51,19.10
2017,01,11,04,52,18.70
2017,01,11,04,53,16.80
2017,01,11,04,54,18.30
2017,01,11,04,55,20.50
2017,01,11,04,56,21.30
2017,01,11,04,57,15.70
2017,01,11,04,58,12.30
2017,01,11,04,59,10.10
2017,01,11,05,00,8.60
2017,01,11,05,01,18.00
2017,01,11,05,02,13.00
2017,01,11,05,03,12.70
2017,01,11,05,04,13.30
2017,01,11,05,05,15.00
2017,01,11,05,06,17.50
2017,01,11,05,07,11.10
2017,01,11,05,08,13.80
2017,01,11,05,09,19.60
2017,01,11,05,10,18.80
2017,01,11,05,11,13.30
2017,01,11,05,12,22.90
2017,01,11,05,13,15.70
2017,01,11,05,14,19.20
2017,01,11,05,15,18.60
2017,01,11,05,16,21.20
2017,01,11,05,17,17.80
2017,01,11,05,18,16.30
2017,01,11,05,19,19.30
2017,01,11,05,20,19.70
2017,01,11,05,21,23.10
2017,01,11,05,22,17.50
2017,01,11,05,23,13.80
2017,01,11,05,24,15.00
2017,01,11,05,25,20.80
2017,01,11,05,26,16.00
2017,01,11,05,27,15.10
2017,01,11,05,28,13.30
2017,01,11,05,29,12.50
2017,01,11,05,30,13.90
2017,01,11,05,31,12.60
2017,01,11,05,32,17.90
2017,01,11,05,33,18.50
2017,01,11,05,34,17.00
2017,01,11,05,35,22.10
2017,01,11,05,36,17.40
2017,01,11,05,37,10.10
2017,01,11,05,38,10.20
2017,01,11,05,39,17.20
2017,01,11,05,40,14.80
2017,01,11,05,41,22.40
2017,01,11,05,42,19.00
2017,01,11,05,43,21.60
2017,01,11,05,44,15.60
2017,01,11,05,45,14.30
2017,01,11,05,46,11.80
2017,01,11,05,47,12.90
2017,01,11,05,48,14.20
2017,01,11,05,49,17.40
2017,01,11,05,50,15.80
2017,01,11,05,51,12.60
2017,01,11,05,52,15.60
2017,01,11,05,53,14.90
2017,01,11,05,54,17.10
2017,01,11,05,55,14.90
2017,01,11,05,56,13.90
2017,01,11,05,57,19.30
2017,01,11,05,58,19.90
2017,01,11,05,59,18.50
2017,01,11,06,00,25.70
2017,01,11,06,01,23.30
2017,01,11,06,02,19.70
2017,01,11,06,03,21.10
2017,01,11,06,04,18.90
2017,01,11,06,05,15.40
2017,01,11,06,06,16.20
2017,01,11,06,07,13.90
2017,01,11,06,08,11.00
2017,01,11,06,09,11.80
2017,01,11,06,10,8.70
2017,01,11,06,11,11.30
2017,01,11,06,12,14.20
2017,01,11,06,13,12.20
2017,01,11,06,14,13.40
2017,01,11,06,15,13.30
2017,01,11,06,16,15.10
2017,01,11,06,17,19.10
2017,01,11,06,18,18.80
2017,01,11,06,19,17.20
2017,01,11,06,20,20.20
2017,01,11,06,21,12.70
2017,01,11,06,22,19.80
2017,01,11,06,23,16.70
2017,01,11,06,24,16.40
2017,01,11,06,25,8.60
2017,01,11,06,26,22.30
2017,01,11,06,27,21.20
2017,01,11,06,28,20.80
2017,01,11,06,29,21.30
2017,01,11,06,30,20.80
2017,01,11,06,31,17.30
2017,01,11,06,32,17.10
2017,01,11,06,33,17.50
2017,01,11,06,34,13.50
2017,01,11,06,35,14.00
2017,01,11,06,36,14.10
2017,01,11,06,37,20.40
2017,01,11,06,38,8.90
2017,01,11,06,39,9.30
2017,01,11,06,40,13.40
2017,01,11,06,41,16.10
2017,01,11,06,42,15.80
2017,01,11,06,43,17.40
2017,01,11,06,44,16.10
2017,01,11,06,45,18.70
2017,01,11,06,46,21.00
2017,01,11,06,47,18.20
2017,01,11,06,48,18.50
2017,01,11,06,49,18.70
2017,01,11,06,50,16.10
2017,01,11,06,51,19.50
2017,01,11,06,52,11.30
2017,01,11,06,53,9.50
2017,01,11,06,54,10.50
2017,01,11,06,55,18.50
2017,01,11,06,56,14.10
2017,01,11,06,57,12.00
2017,01,11,06,58,9.30
2017,01,11,06,59,12.20
2017,01,11,07,00,11.70
2017,01,11,07,01,7.80
2017,01,11,07,02,13.60
2017,01,11,07,03,13.00
2017,01,11,07,04,9.90
2017,01,11,07,05,8.10
2017,01,11,07,06,6.40
2017,01,11,07,07,14.60
2017,01,11,07,08,8.40
2017,01,11,07,09,13.50
2017,01,11,07,10,16.70
2017,01,11,07,11,19.50
2017,01,11,07,12,14.00
2017,01,11,07,13,15.80
2017,01,11,07,14,11.60
2017,01,11,07,15,13.30
2017,01,11,07,16,16.90
2017,01,11,07,17,13.70
2017,01,11,07,18,14.70
2017,01,11,07,19,20.00
2017,01,11,07,20,18.60
2017,01,11,07,21,23.10
2017,01,11,07,22,16.10
2017,01,11,07,23,17.00
2017,01,11,07,24,16.80
2017,01,11,07,25,12.60
2017,01,11,07,26,10.50
2017,01,11,07,27,12.60
2017,01,11,07,28,20.70
2017,01,11,07,29,12.90
2017,01,11,07,30,11.90
2017,01,11,07,31,13.00
2017,01,11,07,32,15.30
2017,01,11,07,33,19.70
2017,01,11,07,34,12.70
2017,01,11,07,35,14.70
2017,01,11,07,36,12.30
2017,01,11,07,37,11.80
2017,01,11,07,38,13.80
2017,01,11,07,39,19.10
2017,01,11,07,40,19.60
2017,01,11,07,41,16.70
2017,01,11,07,42,12.90
2017,01,11,07,43,17.10
2017,01,11,07,44,16.00
2017,01,11,07,45,16.30
2017,01,11,07,46,13.50
2017,01,11,07,47,16.40
2017,01,11,07,48,21.50
2017,01,11,07,49,16.50
2017,01,11,07,50,7.20
2017,01,11,07,51,11.60
2017,01,11,07,52,14.40
2017,01,11,07,53,11.60
2017,01,11,07,54,9.70
2017,01,11,07,55,12.20
2017,01,11,07,56,18.50
2017,01,11,07,57,12.60
2017,01,11,07,58,15.70
2017,01,11,07,59,12.40
2017,01,11,08,00,10.10
2017,01,11,08,01,13.40
2017,01,11,08,02,10.60
2017,01,11,08,03,12.00
2017,01,11,08,04,14.30
2017,01,11,08,05,9.00
2017,01,11,08,06,6.00
2017,01,11,08,07,5.90
2017,01,11,08,08,7.20
2017,01,11,08,09,9.50
2017,01,11,08,10,10.40
2017,01,11,08,11,14.40
2017,01,11,08,12,7.10
2017,01,11,08,13,10.90
2017,01,11,08,14,17.50
2017,01,11,08,15,13.00
2017,01,11,08,16,10.60
2017,01,11,08,17,13.90
2017,01,11,08,18,15.40
2017,01,11,08,19,17.10
2017,01,11,08,20,10.90
2017,01,11,08,21,11.30
2017,01,11,08,22,10.50
2017,01,11,08,23,14.60
2017,01,11,08,24,9.60
2017,01,11,08,25,12.80
2017,01,11,08,26,11.20
2017,01,11,08,27,11.50
2017,01,11,08,28,16.90
2017,01,11,08,29,14.30
2017,01,11,08,30,12.80
2017,01,11,08,31,10.00
2017,01,11,08,32,9.10
2017,01,11,08,33,9.40
2017,01,11,08,34,10.80
2017,01,11,08,35,5.40
2017,01,11,08,36,11.90
2017,01,11,08,37,14.40
2017,01,11,08,38,15.80
2017,01,11,08,39,14.30
2017,01,11,08,40,15.40
2017,01,11,08,41,13.00
2017,01,11,08,42,13.50
2017,01,11,08,43,12.20
2017,01,11,08,44,13.80
2017,01,11,08,45,7.70
2017,01,11,08,46,10.40
2017,01,11,08,47,6.90
2017,01,11,08,48,6.20
2017,01,11,08,49,9.70
2017,01,11,08,50,8.70
2017,01,11,08,51,6.00
2017,01,11,08,52,10.20
2017,01,11,08,53,11.70
2017,01,11,08,54,8.10
2017,01,11,08,55,8.60
2017,01,11,08,56,11.00
2017,01,11,08,57,12.10
2017,01,11,08,58,9.50
2017,01,11,08,59,9.50
2017,01,11,09,00,8.60
2017,01,11,09,01,6.90
2017,01,11,09,02,6.90
2017,01,11,09,03,6.50
2017,01,11,09,04,7.50
2017,01,11,09,05,8.60
2017,01,11,09,06,11.20
2017,01,11,09,07,8.90
2017,01,11,09,08,8.30
2017,01,11,09,09,5.20
2017,01,11,09,10,8.70
2017,01,11,09,11,9.30
2017,01,11,09,12,8.30
2017,01,11,09,13,12.70
2017,01,11,09,14,13.80
2017,01,11,09,15,10.50
2017,01,11,09,16,11.60
2017,01,11,09,17,12.80
2017,01,11,09,18,14.20
2017,01,11,09,19,14.00
2017,01,11,09,20,8.10
2017,01,11,09,21,6.60
2017,01,11,09,22,11.30
2017,01,11,09,23,12.20
2017,01,11,09,24,11.70
2017,01,11,09,25,10.20
2017,01,11,09,26,9.30
2017,01,11,09,27,7.90
2017,01,11,09,28,12.30
2017,01,11,09,29,9.50
2017,01,11,09,30,9.30
2017,01,11,09,31,10.80
2017,01,11,09,32,11.70
2017,01,11,09,33,11.70
2017,01,11,09,34,13.00
2017,01,11,09,35,9.40
2017,01,11,09,36,10.80
2017,01,11,09,37,13.60
2017,01,11,09,38,12.90
2017,01,11,09,39,8.90
2017,01,11,09,40,12.20
2017,01,11,09,41,10.10
2017,01,11,09,42,7.70
2017,01,11,09,43,9.80
2017,01,11,09,44,10.60
2017,01,11,09,45,7.10
2017,01,11,09,46,8.50
2017,01,11,09,47,8.70
2017,01,11,09,48,8.20
2017,01,11,09,49,13.50
2017,01,11,09,50,9.40
2017,01,11,09,51,11.70
2017,01,11,09,52,7.30
2017,01,11,09,53,6.30
2017,01,11,09,54,7.50
2017,01,11,09,55,6.40
2017,01,11,09,56,8.50
2017,01,11,09,57,6.50
2017,01,11,09,58,7.90
2017,01,11,09,59,8.30
2017,01,11,10,00,8.70
2017,01,11,10,01,8.60
2017,01,11,10,02,10.90
2017,01,11,10,03,10.00
2017,01,11,10,04,10.30
2017,01,11,10,05,6.40
2017,01,11,10,06,9.80
2017,01,11,10,07,10.00
2017,01,11,10,08,9.70
2017,01,11,10,09,10.30
2017,01,11,10,10,8.10
2017,01,11,10,11,5.90
2017,01,11,10,12,7.10
2017,01,11,10,13,7.10
2017,01,11,10,14,8.40
2017,01,11,10,15,7.50
2017,01,11,10,16,6.30
2017,01,11,10,17,7.20
2017,01,11,10,18,6.20
2017,01,11,10,19,4.50
2017,01,11,10,20,4.50
2017,01,11,10,21,5.20
2017,01,11,10,22,5.50
2017,01,11,10,23,8.20
2017,01,11,10,24,8.10
2017,01,11,10,25,6.90
2017,01,11,10,26,5.50
2017,01,11,10,27,3.90
2017,01,11,10,28,7.50
2017,01,11,10,29,6.50
2017,01,11,10,30,5.30
2017,01,11,10,31,6.90
2017,01,11,10,32,7.00
2017,01,11,10,33,6.00
2017,01,11,10,34,8.90
2017,01,11,10,35,7.60
2017,01,11,10,36,4.10
2017,01,11,10,37,6.60
2017,01,11,10,38,5.60
2017,01,11,10,39,5.90
2017,01,11,10,40,6.40
2017,01,11,10,41,6.50
2017,01,11,10,42,4.40
2017,01,11,10,43,5.60
2017,01,11,10,44,6.40
2017,01,11,10,45,6.20
2017,01,11,10,46,6.40
2017,01,11,10,47,6.00
2017,01,11,10,48,5.70
2017,01,11,10,49,6.30
2017,01,11,10,50,7.40
2017,01,11,10,51,5.10
2017,01,11,10,52,4.30
2017,01,11,10,53,3.90
2017,01,11,10,54,5.10
2017,01,11,10,55,4.00
2017,01,11,10,56,4.50
2017,01,11,10,57,5.50
2017,01,11,10,58,4.50
2017,01,11,10,59,2.80
2017,01,11,11,00,3.20
2017,01,11,11,01,6.70
2017,01,11,11,02,8.10
2017,01,11,11,03,5.60
2017,01,11,11,04,5.50
2017,01,11,11,05,6.20
2017,01,11,11,06,6.90
2017,01,11,11,07,6.40
2017,01,11,11,08,5.60
2017,01,11,11,09,6.20
2017,01,11,11,10,5.10
2017,01,11,11,11,6.10
2017,01,11,11,12,5.20
2017,01,11,11,13,6.00
2017,01,11,11,14,5.90
2017,01,11,11,15,5.40
2017,01,11,11,16,6.80
2017,01,11,11,17,3.30
2017,01,11,11,18,5.80
2017,01,11,11,19,4.40
2017,01,11,11,20,4.50
2017,01,11,11,21,5.30
2017,01,11,11,22,5.50
2017,01,11,11,23,3.20
2017,01,11,11,24,3.80
2017,01,11,11,25,2.50
2017,01,11,11,26,5.20
2017,01,11,11,27,5.30
2017,01,11,11,28,6.30
2017,01,11,11,29,5.90
2017,01,11,11,30,4.50
2017,01,11,11,31,3.50
2017,01,11,11,32,3.20
2017,01,11,11,33,3.10
2017,01,11,11,34,0.70
2017,01,11,11,35,3.70
2017,01,11,11,36,4.30
2017,01,11,11,37,2.70
2017,01,11,11,38,3.90
2017,01,11,11,39,3.60
2017,01,11,11,40,3.50
2017,01,11,11,41,2.80
2017,01,11,11,42,1.50
2017,01,11,11,43,1.50
2017,01,11,11,44,1.80
2017,01,11,11,45,0.60
2017,01,11,11,46,1.30
2017,01,11,11,47,2.30
2017,01,11,11,48,2.30
2017,01,11,11,49,4.40
2017,01,11,11,50,6.00
2017,01,11,11,51,5.30
2017,01,11,11,52,4.70
2017,01,11,11,53,2.60
2017,01,11,11,54,0.00
2017,01,11,11,55,0.00
2017,01,11,11,56,0.20
2017,01,11,11,57,2.90
2017,01,11,11,58,1.80
2017,01,11,11,59,0.40
2017,01,11,12,00,0.60
2017,01,11,12,01,1.70
2017,01,11,12,02,1.80
2017,01,11,12,03,0.20
2017,01,11,12,04,0.70
2017,01,11,12,05,0.00
2017,01,11,12,06,0.10
2017,01,11,12,07,2.50
2017,01,11,12,08,4.70
2017,01,11,12,09,3.20
2017,01,11,12,10,4.10
2017,01,11,12,11,4.50
2017,01,11,12,12,2.40
2017,01,11,12,13,1.90
2017,01,11,12,14,3.00
2017,01,11,12,15,3.30
2017,01,11,12,16,4.90
2017,01,11,12,17,5.80
2017,01,11,12,18,5.80
2017,01,11,12,19,3.70
2017,01,11,12,20,1.40
2017,01,11,12,21,1.80
2017,01,11,12,22,4.50
2017,01,11,12,23,4.30
2017,01,11,12,24,2.40
2017,01,11,12,25,2.20
2017,01,11,12,26,5.40
2017,01,11,12,27,2.60
2017,01,11,12,28,3.00
2017,01,11,12,29,1.40
2017,01,11,12,30,2.30
2017,01,11,12,31,2.20
2017,01,11,12,32,2.90
2017,01,11,12,33,2.70
2017,01,11,12,34,2.70
2017,01,11,12,35,2.30
2017,01,11,12,36,1.90
2017,01,11,12,37,1.50
2017,01,11,12,38,0.10
2017,01,11,12,39,0.10
2017,01,11,12,40,1.90
2017,01,11,12,41,5.20
2017,01,11,12,42,5.10
2017,01,11,12,43,6.10
2017,01,11,12,44,4.80
2017,01,11,12,45,4.50
2017,01,11,12,46,1.90
2017,01,11,12,47,0.20
2017,01,11,12,48,1.70
2017,01,11,12,49,3.90
2017,01,11,12,50,1.90
2017,01,11,12,51,2.50
2017,01,11,12,52,3.60
2017,01,11,12,53,5.30
2017,01,11,12,54,4.10
2017,01,11,12,55,1.70
2017,01,11,12,56,3.40
2017,01,11,12,57,4.90
2017,01,11,12,58,4.10
2017,01,11,12,59,4.90
2017,01,11,13,00,3.60
2017,01,11,13,01,2.50
2017,01,11,13,02,3.90
2017,01,11,13,03,4.10
2017,01,11,13,04,6.00
2017,01,11,13,05,5.60
2017,01,11,13,06,3.80
2017,01,11,13,07,3.50
2017,01,11,13,08,1.10
2017,01,11,13,09,1.90
2017,01,11,13,10,1.50
2017,01,11,13,11,1.10
2017,01,11,13,12,1.60
2017,01,11,13,13,0.00
2017,01,11,13,14,0.00
2017,01,11,13,15,4.50
2017,01,11,13,16,2.30
2017,01,11,13,17,1.40
2017,01,11,13,18,0.40
2017,01,11,13,19,1.90
2017,01,11,13,20,0.80
2017,01,11,13,21,0.80
2017,01,11,13,22,0.20
2017,01,11,13,23,1.40
2017,01,11,13,24,3.30
2017,01,11,13,25,1.10
2017,01,11,13,26,1.60
2017,01,11,13,27,0.10
2017,01,11,13,28,1.50
2017,01,11,13,29,3.00
2017,01,11,13,30,2.50
2017,01,11,13,31,0.30
2017,01,11,13,32,0.60
2017,01,11,13,33,4.40
2017,01,11,13,34,5.30
2017,01,11,13,35,1.50
2017,01,11,13,36,1.50
2017,01,11,13,37,3.80
2017,01,11,13,38,3.80
2017,01,11,13,39,5.40
2017,01,11,13,40,2.90
2017,01,11,13,41,5.40
2017,01,11,13,42,3.00
2017,01,11,13,43,1.10
2017,01,11,13,44,0.80
2017,01,11,13,45,0.20
2017,01,11,13,46,0.00
2017,01,11,13,47,0.90
2017,01,11,13,48,1.20
2017,01,11,13,49,0.00
2017,01,11,13,50,0.00
2017,01,11,13,51,0.00
2017,01,11,13,52,1.70
2017,01,11,13,53,5.70
2017,01,11,13,54,1.50
2017,01,11,13,55,2.20
2017,01,11,13,56,2.00
2017,01,11,13,57,2.60
2017,01,11,13,58,2.50
2017,01,11,13,59,1.80
2017,01,11,14,00,1.20
2017,01,11,14,01,3.10
2017,01,11,14,02,1.40
2017,01,11,14,03,4.80
2017,01,11,14,04,3.10
2017,01,11,14,05,1.90
2017,01,11,14,06,0.40
2017,01,11,14,07,1.10
2017,01,11,14,08,3.10
2017,01,11,14,09,5.90
2017,01,11,14,10,4.00
2017,01,11,14,11,3.20
2017,01,11,14,12,3.30
2017,01,11,14,13,4.40
2017,01,11,14,14,2.30
2017,01,11,14,15,1.20
2017,01,11,14,16,0.30
2017,01,11,14,17,1.20
2017,01,11,14,18,2.50
2017,01,11,14,19,3.20
2017,01,11,14,20,2.80
2017,01,11,14,21,4.40
2017,01,11,14,22,3.90
2017,01,11,14,23,3.50
2017,01,11,14,24,4.70
2017,01,11,14,25,4.00
2017,01,11,14,26,5.50
2017,01,11,14,27,2.40
2017,01,11,14,28,4.30
2017,01,11,14,29,2.10
2017,01,11,14,30,0.30
2017,01,11,14,31,1.90
2017,01,11,14,32,4.90
2017,01,11,14,33,3.50
2017,01,11,14,34,1.00
2017,01,11,14,35,0.00
2017,01,11,14,36,0.10
2017,01,11,14,37,2.00
2017,01,11,14,38,2.00
2017,01,11,14,39,2.50
2017,01,11,14,40,3.00
2017,01,11,14,41,0.90
2017,01,11,14,42,1.50
2017,01,11,14,43,0.70
2017,01,11,14,44,3.80
2017,01,11,14,45,1.30
2017,01,11,14,46,0.50
2017,01,11,14,47,0.40
2017,01,11,14,48,0.40
2017,01,11,14,49,0.00
2017,01,11,14,50,0.00
2017,01,11,14,51,0.00
2017,01,11,14,52,0.70
2017,01,11,14,53,2.20
2017,01,11,14,54,3.40
2017,01,11,14,55,2.40
2017,01,11,14,56,2.30
2017,01,11,14,57,2.60
2017,01,11,14,58,1.10
2017,01,11,14,59,0.10
2017,01,11,15,00,0.20
2017,01,11,15,01,1.50
2017,01,11,15,02,2.20
2017,01,11,15,03,1.00
2017,01,11,15,04,0.10
2017,01,11,15,05,0.00
2017,01,11,15,06,0.40
2017,01,11,15,07,0.70
2017,01,11,15,08,0.00
2017,01,11,15,09,0.30
2017,01,11,15,10,2.90
2017,01,11,15,11,1.10
2017,01,11,15,12,3.10
2017,01,11,15,13,0.60
2017,01,11,15,14,0.00
2017,01,11,15,15,0.90
2017,01,11,15,16,0.70
2017,01,11,15,17,0.50
2017,01,11,15,18,2.70
2017,01,11,15,19,1.60
2017,01,11,15,20,1.10
2017,01,11,15,21,2.50
2017,01,11,15,22,2.60
2017,01,11,15,23,4.80
2017,01,11,15,24,3.40
2017,01,11,15,25,1.90
2017,01,11,15,26,3.10
2017,01,11,15,27,2.70
2017,01,11,15,28,0.10
2017,01,11,15,29,0.60
2017,01,11,15,30,1.90
2017,01,11,15,31,4.90
2017,01,11,15,32,4.50
2017,01,11,15,33,2.20
2017,01,11,15,34,3.20
2017,01,11,15,35,2.80
2017,01,11,15,36,5.70
2017,01,11,15,37,7.10
2017,01,11,15,38,6.80
2017,01,11,15,39,3.50
2017,01,11,15,40,0.70
2017,01,11,15,41,2.70
2017,01,11,15,42,3.10
2017,01,11,15,43,6.10
2017,01,11,15,44,5.00
2017,01,11,15,45,5.40
2017,01,11,15,46,5.00
2017,01,11,15,47,3.20
2017,01,11,15,48,2.50
2017,01,11,15,49,2.60
2017,01,11,15,50,3.40
2017,01,11,15,51,2.30
2017,01,11,15,52,2.50
2017,01,11,15,53,3.70
2017,01,11,15,54,0.40
2017,01,11,15,55,0.00
2017,01,11,15,56,0.70
2017,01,11,15,57,0.40
2017,01,11,15,58,1.90
2017,01,11,15,59,1.70
2017,01,11,16,00,0.10
2017,01,11,16,01,1.90
2017,01,11,16,02,2.10
2017,01,11,16,03,0.00
2017,01,11,16,04,0.50
2017,01,11,16,05,1.10
2017,01,11,16,06,0.20
2017,01,11,16,07,0.80
2017,01,11,16,08,0.10
2017,01,11,16,09,0.20
2017,01,11,16,10,1.90
2017,01,11,16,11,0.50
2017,01,11,16,12,0.50
2017,01,11,16,13,2.10
2017,01,11,16,14,1.10
2017,01,11,16,15,1.20
2017,01,11,16,16,0.30
2017,01,11,16,17,1.60
2017,01,11,16,18,3.20
2017,01,11,16,19,2.60
2017,01,11,16,20,1.20
2017,01,11,16,21,0.70
2017,01,11,16,22,0.10
2017,01,11,16,23,0.00
2017,01,11,16,24,0.10
2017,01,11,16,25,0.10
2017,01,11,16,26,0.10
2017,01,11,16,27,0.00
2017,01,11,16,28,0.00
2017,01,11,16,29,0.00
2017,01,11,16,30,0.00
2017,01,11,16,31,0.00
2017,01,11,16,32,0.00
2017,01,11,16,33,0.00
2017,01,11,16,34,0.00
2017,01,11,16,35,0.00
2017,01,11,16,36,0.00
2017,01,11,16,37,0.00
2017,01,11,16,38,0.00
2017,01,11,16,39,0.00
2017,01,11,16,40,0.00
2017,01,11,16,41,0.00
2017,01,11,16,42,0.00
2017,01,11,16,43,0.00
2017,01,11,16,44,0.00
2017,01,11,16,45,0.00
2017,01,11,16,46,0.00
2017,01,11,16,47,0.00
2017,01,11,16,48,0.00
2017,01,11,16,49,0.00
2017,01,11,16,50,0.00
2017,01,11,16,51,0.00
2017,01,11,16,52,0.00
2017,01,11,16,53,0.00
2017,01,11,16,54,0.00
2017,01,11,16,55,0.00
2017,01,11,16,56,0.00
2017,01,11,16,57,0.00
2017,01,11,16,58,0.00
2017,01,11,16,59,0.00
2017,01,11,17,00,0.00
2017,01,11,17,01,0.00
2017,01,11,17,02,0.00
2017,01,11,17,03,0.00
2017,01,11,17,04,0.00
2017,01,11,17,05,0.00
2017,01,11,17,06,0.00
2017,01,11,17,07,0.00
2017,01,11,17,08,0.00
2017,01,11,17,09,0.00
2017,01,11,17,10,0.00
2017,01,11,17,11,0.00
2017,01,11,17,12,0.00
2017,01,11,17,13,0.00
2017,01,11,17,14,0.00
2017,01,11,17,15,0.80
2017,01,11,17,16,2.30
2017,01,11,17,17,1.50
2017,01,11,17,18,0.30
2017,01,11,17,19,0.20
2017,01,11,17,20,0.00
2017,01,11,17,21,0.00
2017,01,11,17,22,0.00
2017,01,11,17,23,0.00
2017,01,11,17,24,0.00
2017,01,11,17,25,0.00
2017,01,11,17,26,0.00
2017,01,11,17,27,0.00
2017,01,11,17,28,0.00
2017,01,11,17,29,0.00
2017,01,11,17,30,0.00
2017,01,11,17,31,0.00
2017,01,11,17,32,0.00
2017,01,11,17,33,0.00
2017,01,11,17,34,0.40
2017,01,11,17,35,0.00
2017,01,11,17,36,1.10
2017,01,11,17,37,1.70
2017,01,11,17,38,1.80
2017,01,11,17,39,1.50
2017,01,11,17,40,0.30
2017,01,11,17,41,0.00
2017,01,11,17,42,0.60